Time,TemperatureF,DewpointF,PressureIn,WindDirection,WindDirectionDegrees,WindSpeedMPH,WindSpeedGustMPH,Humidity,HourlyPrecipIn,Conditions,Clouds,dailyrainin,SolarRadiationWatts/m^2,SoftwareType,DateUTC
2013-10-21 00:03:00,55.1,50.0,29.98,WNW,294,0.0,0.0,83,0.00,,,0.00,0,Wunderground v.1.15,2013-10-21 05:03:00,
2013-10-21 00:08:00,54.9,49.8,29.98,WNW,294,0.0,0.0,83,0.00,,,0.00,0,Wunderground v.1.15,2013-10-21 05:08:00,
2013-10-21 00:14:00,54.8,50.1,29.98,WNW,294,0.0,2.0,84,0.00,,,0.00,0,Wunderground v.1.15,2013-10-21 05:14:00,
2013-10-21 00:19:00,54.7,50.0,29.98,WNW,294,0.0,2.0,84,0.00,,,0.00,0,Wunderground v.1.15,2013-10-21 05:19:00,
2013-10-21 00:24:00,54.6,49.9,29.99,WNW,294,0.0,0.0,84,0.00,,,0.00,0,Wunderground v.1.15,2013-10-21 05:24:00,
2013-10-21 00:30:00,54.5,50.1,29.99,WNW,294,0.0,0.0,85,0.00,,,0.00,0,Wunderground v.1.15,2013-10-21 05:30:00,
2013-10-21 00:36:00,54.3,49.9,29.99,WNW,294,0.0,0.0,85,0.00,,,0.00,0,Wunderground v.1.15,2013-10-21 05:36:00,
2013-10-21 00:41:00,54.2,50.1,29.99,WNW,294,0.0,0.0,86,0.00,,,0.00,0,Wunderground v.1.15,2013-10-21 05:41:00,
2013-10-21 00:46:00,54.1,50.0,29.99,WNW,294,0.0,0.0,86,0.00,,,0.00,0,Wunderground v.1.15,2013-10-21 05:46:00,
2013-10-21 00:51:00,54.0,49.9,29.98,WNW,294,0.0,0.0,86,0.00,,,0.00,0,Wunderground v.1.15,2013-10-21 05:51:00,
2013-10-21 00:56:00,53.8,49.7,29.98,WNW,294,0.0,0.0,86,0.00,,,0.00,0,Wunderground v.1.15,2013-10-21 05:56:00,
2013-10-21 01:01:00,53.7,49.9,29.99,WNW,294,0.0,0.0,87,0.00,,,0.00,0,Wunderground v.1.15,2013-10-21 06:01:00,
2013-10-21 01:07:00,53.5,49.7,29.98,WNW,294,0.0,0.0,87,0.00,,,0.00,0,Wunderground v.1.15,2013-10-21 06:07:00,
2013-10-21 01:12:00,53.5,49.7,29.99,WNW,294,0.0,0.0,87,0.00,,,0.00,0,Wunderground v.1.15,2013-10-21 06:12:00,
2013-10-21 01:17:00,53.4,49.9,29.99,WNW,294,0.0,0.0,88,0.00,,,0.00,0,Wunderground v.1.15,2013-10-21 06:17:00,
2013-10-21 01:22:00,53.3,49.8,29.99,WNW,294,0.0,0.0,88,0.00,,,0.00,0,Wunderground v.1.15,2013-10-21 06:22:00,
2013-10-21 01:27:00,53.1,49.6,29.99,WNW,294,0.0,0.0,88,0.00,,,0.00,0,Wunderground v.1.15,2013-10-21 06:27:00,
2013-10-21 01:32:00,53.0,49.8,29.99,WNW,294,0.0,0.0,89,0.00,,,0.00,0,Wunderground v.1.15,2013-10-21 06:32:00,
2013-10-21 01:38:00,52.8,49.9,29.99,WNW,294,0.0,0.0,90,0.00,,,0.00,0,Wunderground v.1.15,2013-10-21 06:38:00,
2013-10-21 01:43:00,52.7,50.1,29.99,WNW,294,0.0,0.0,91,0.00,,,0.00,0,Wunderground v.1.15,2013-10-21 06:43:00,
2013-10-21 01:48:00,52.6,50.0,30.00,WNW,294,0.0,0.0,91,0.00,,,0.00,0,Wunderground v.1.15,2013-10-21 06:48:00,
2013-10-21 01:54:00,52.5,49.9,30.00,WNW,294,0.0,0.0,91,0.00,,,0.00,0,Wunderground v.1.15,2013-10-21 06:54:00,
2013-10-21 01:59:00,52.5,49.9,30.00,WNW,294,0.0,0.0,91,0.00,,,0.00,0,Wunderground v.1.15,2013-10-21 06:59:00,
2013-10-21 02:04:00,52.3,49.8,30.00,WNW,294,0.0,0.0,91,0.00,,,0.00,0,Wunderground v.1.15,2013-10-21 07:04:00,
2013-10-21 02:09:00,52.2,49.7,30.00,WNW,294,0.0,0.0,91,0.00,,,0.00,0,Wunderground v.1.15,2013-10-21 07:09:00,
2013-10-21 02:14:00,52.1,49.6,30.00,WNW,294,0.0,0.0,91,0.00,,,0.00,0,Wunderground v.1.15,2013-10-21 07:14:00,
2013-10-21 02:19:00,51.9,49.6,30.00,WNW,294,0.0,0.0,92,0.00,,,0.00,0,Wunderground v.1.15,2013-10-21 07:19:00,
2013-10-21 02:25:00,51.7,49.5,30.00,WNW,294,0.0,0.0,92,0.00,,,0.00,0,Wunderground v.1.15,2013-10-21 07:25:00,
2013-10-21 02:30:00,51.6,49.4,30.00,WNW,294,0.0,0.0,92,0.00,,,0.00,0,Wunderground v.1.15,2013-10-21 07:30:00,
2013-10-21 02:35:00,51.5,49.3,30.00,WNW,294,0.0,0.0,92,0.00,,,0.00,0,Wunderground v.1.15,2013-10-21 07:35:00,
2013-10-21 02:40:00,51.4,49.4,30.00,WNW,294,0.0,0.0,93,0.00,,,0.00,0,Wunderground v.1.15,2013-10-21 07:40:00,
2013-10-21 02:45:00,51.2,49.2,30.00,WNW,294,0.0,0.0,93,0.00,,,0.00,0,Wunderground v.1.15,2013-10-21 07:45:00,
2013-10-21 02:50:00,51.2,49.5,30.01,WNW,294,0.0,0.0,94,0.00,,,0.00,0,Wunderground v.1.15,2013-10-21 07:50:00,
2013-10-21 02:55:00,51.1,49.4,30.00,WNW,294,0.0,0.0,94,0.00,,,0.00,0,Wunderground v.1.15,2013-10-21 07:55:00,
2013-10-21 03:01:00,51.0,49.3,30.00,WNW,294,0.0,0.0,94,0.00,,,0.00,0,Wunderground v.1.15,2013-10-21 08:01:00,
2013-10-21 03:06:00,51.0,49.6,30.00,WNW,294,0.0,0.0,95,0.00,,,0.00,0,Wunderground v.1.15,2013-10-21 08:06:00,
2013-10-21 03:11:00,51.0,49.6,30.00,WNW,294,0.0,0.0,95,0.00,,,0.00,0,Wunderground v.1.15,2013-10-21 08:11:00,
2013-10-21 03:16:00,51.0,49.6,30.00,WNW,294,0.0,0.0,95,0.00,,,0.00,0,Wunderground v.1.15,2013-10-21 08:16:00,
2013-10-21 03:21:00,50.9,49.5,30.00,WNW,294,0.0,0.0,95,0.00,,,0.00,0,Wunderground v.1.15,2013-10-21 08:21:00,
2013-10-21 03:26:00,50.8,49.4,30.00,WNW,294,0.0,0.0,95,0.00,,,0.00,0,Wunderground v.1.15,2013-10-21 08:26:00,
2013-10-21 03:31:00,50.7,49.3,30.00,WNW,294,0.0,0.0,95,0.00,,,0.00,0,Wunderground v.1.15,2013-10-21 08:31:00,
2013-10-21 03:37:00,50.6,49.2,30.00,WNW,294,0.0,0.0,95,0.00,,,0.00,0,Wunderground v.1.15,2013-10-21 08:37:00,
2013-10-21 03:42:00,50.6,49.2,30.00,WNW,294,0.0,0.0,95,0.00,,,0.00,0,Wunderground v.1.15,2013-10-21 08:42:00,
2013-10-21 03:47:00,50.6,49.2,30.00,WNW,294,0.0,0.0,95,0.00,,,0.00,0,Wunderground v.1.15,2013-10-21 08:47:00,
2013-10-21 03:52:00,50.5,49.1,30.00,WNW,294,0.0,0.0,95,0.00,,,0.00,0,Wunderground v.1.15,2013-10-21 08:52:00,
2013-10-21 03:57:00,50.5,49.1,30.00,WNW,294,0.0,0.0,95,0.00,,,0.00,0,Wunderground v.1.15,2013-10-21 08:57:00,
2013-10-21 04:02:00,50.4,49.0,30.00,WNW,294,0.0,0.0,95,0.00,,,0.00,0,Wunderground v.1.15,2013-10-21 09:02:00,
2013-10-21 04:07:00,50.3,48.9,30.00,WNW,294,0.0,0.0,95,0.00,,,0.00,0,Wunderground v.1.15,2013-10-21 09:07:00,
2013-10-21 04:12:00,50.3,49.2,30.00,WNW,294,0.0,0.0,96,0.00,,,0.00,0,Wunderground v.1.15,2013-10-21 09:12:00,
2013-10-21 04:17:00,50.3,49.2,30.00,WNW,294,0.0,0.0,96,0.00,,,0.00,0,Wunderground v.1.15,2013-10-21 09:17:00,
2013-10-21 04:22:00,50.3,49.2,30.00,WNW,294,0.0,0.0,96,0.00,,,0.00,0,Wunderground v.1.15,2013-10-21 09:22:00,
2013-10-21 04:28:00,50.4,49.3,30.00,WNW,294,0.0,0.0,96,0.00,,,0.00,0,Wunderground v.1.15,2013-10-21 09:28:00,
2013-10-21 04:33:00,50.5,49.4,30.00,WNW,294,0.0,0.0,96,0.00,,,0.00,0,Wunderground v.1.15,2013-10-21 09:33:00,
2013-10-21 04:38:00,50.6,49.5,30.00,WNW,294,0.0,0.0,96,0.00,,,0.00,0,Wunderground v.1.15,2013-10-21 09:38:00,
2013-10-21 04:43:00,50.6,49.5,29.99,WNW,294,0.0,0.0,96,0.00,,,0.00,0,Wunderground v.1.15,2013-10-21 09:43:00,
2013-10-21 04:48:00,50.6,49.5,29.99,WNW,294,0.0,0.0,96,0.00,,,0.00,0,Wunderground v.1.15,2013-10-21 09:48:00,
2013-10-21 04:53:00,50.7,49.6,29.99,WNW,294,0.0,0.0,96,0.00,,,0.00,0,Wunderground v.1.15,2013-10-21 09:53:00,
2013-10-21 04:58:00,50.7,49.6,29.99,WNW,294,0.0,0.0,96,0.00,,,0.00,0,Wunderground v.1.15,2013-10-21 09:58:00,
2013-10-21 05:03:00,50.7,49.6,29.99,WNW,294,0.0,0.0,96,0.00,,,0.00,0,Wunderground v.1.15,2013-10-21 10:03:00,
2013-10-21 05:08:00,50.7,49.6,29.99,WNW,294,0.0,0.0,96,0.00,,,0.00,0,Wunderground v.1.15,2013-10-21 10:08:00,
2013-10-21 05:14:00,50.8,49.7,29.99,WNW,294,0.0,0.0,96,0.00,,,0.00,0,Wunderground v.1.15,2013-10-21 10:14:00,
2013-10-21 05:19:00,50.9,49.8,29.99,WNW,294,0.0,0.0,96,0.00,,,0.00,0,Wunderground v.1.15,2013-10-21 10:19:00,
2013-10-21 05:24:00,50.9,49.8,29.99,WNW,294,0.0,0.0,96,0.00,,,0.00,0,Wunderground v.1.15,2013-10-21 10:24:00,
2013-10-21 05:29:00,50.9,49.8,29.99,WNW,294,0.0,0.0,96,0.00,,,0.00,0,Wunderground v.1.15,2013-10-21 10:29:00,
2013-10-21 05:35:00,50.8,49.4,29.99,WNW,294,0.0,0.0,95,0.00,,,0.00,0,Wunderground v.1.15,2013-10-21 10:35:00,
2013-10-21 05:40:00,50.8,49.4,29.99,WNW,294,0.0,0.0,95,0.00,,,0.00,0,Wunderground v.1.15,2013-10-21 10:40:00,
2013-10-21 05:45:00,50.7,49.3,29.99,WNW,294,0.0,0.0,95,0.00,,,0.00,0,Wunderground v.1.15,2013-10-21 10:45:00,
2013-10-21 05:50:00,50.6,49.2,30.00,WNW,294,0.0,0.0,95,0.00,,,0.00,0,Wunderground v.1.15,2013-10-21 10:50:00,
2013-10-21 05:55:00,50.6,49.5,30.00,WNW,294,0.0,0.0,96,0.00,,,0.00,0,Wunderground v.1.15,2013-10-21 10:55:00,
2013-10-21 06:00:00,50.6,49.5,30.00,WNW,294,0.0,0.0,96,0.00,,,0.00,0,Wunderground v.1.15,2013-10-21 11:00:00,
2013-10-21 06:05:00,50.6,49.5,30.00,WNW,294,0.0,0.0,96,0.00,,,0.00,0,Wunderground v.1.15,2013-10-21 11:05:00,
2013-10-21 06:10:00,50.6,49.5,30.00,WNW,294,0.0,0.0,96,0.00,,,0.00,0,Wunderground v.1.15,2013-10-21 11:10:00,
2013-10-21 06:15:00,50.7,49.6,30.00,WNW,294,0.0,0.0,96,0.00,,,0.00,0,Wunderground v.1.15,2013-10-21 11:15:00,
2013-10-21 06:20:00,50.8,49.7,30.00,WNW,294,0.0,0.0,96,0.00,,,0.00,0,Wunderground v.1.15,2013-10-21 11:20:00,
2013-10-21 06:25:00,50.8,49.7,30.00,WNW,294,0.0,0.0,96,0.00,,,0.00,0,Wunderground v.1.15,2013-10-21 11:25:00,
2013-10-21 06:30:00,50.8,49.7,30.00,WNW,294,0.0,0.0,96,0.00,,,0.00,0,Wunderground v.1.15,2013-10-21 11:30:00,
2013-10-21 06:35:00,50.8,49.7,30.00,WNW,294,0.0,0.0,96,0.00,,,0.00,0,Wunderground v.1.15,2013-10-21 11:35:00,
2013-10-21 06:40:00,50.7,49.6,30.01,WNW,294,0.0,0.0,96,0.00,,,0.00,0,Wunderground v.1.15,2013-10-21 11:40:00,
2013-10-21 06:45:00,50.7,49.6,30.01,WNW,294,0.0,0.0,96,0.00,,,0.00,0,Wunderground v.1.15,2013-10-21 11:45:00,
2013-10-21 06:50:00,50.8,49.7,30.01,WNW,294,0.0,0.0,96,0.00,,,0.00,0,Wunderground v.1.15,2013-10-21 11:50:00,
2013-10-21 06:55:00,50.7,49.6,30.01,WNW,294,0.0,0.0,96,0.00,,,0.00,0,Wunderground v.1.15,2013-10-21 11:55:00,
2013-10-21 07:00:00,50.6,49.5,30.01,WNW,294,0.0,0.0,96,0.00,,,0.00,0,Wunderground v.1.15,2013-10-21 12:00:00,
2013-10-21 07:05:00,50.6,49.5,30.01,WNW,294,0.0,0.0,96,0.00,,,0.00,0,Wunderground v.1.15,2013-10-21 12:05:00,
2013-10-21 07:10:00,50.7,49.6,30.01,WNW,294,0.0,0.0,96,0.00,,,0.00,0,Wunderground v.1.15,2013-10-21 12:10:00,
2013-10-21 07:15:00,50.8,49.7,30.01,WNW,294,0.0,0.0,96,0.00,,,0.00,5,Wunderground v.1.15,2013-10-21 12:15:00,
2013-10-21 07:20:00,50.8,49.7,30.00,WNW,294,0.0,0.0,96,0.00,,,0.00,7,Wunderground v.1.15,2013-10-21 12:20:00,
2013-10-21 07:25:00,50.9,49.8,30.00,WNW,294,0.0,0.0,96,0.00,,,0.00,11,Wunderground v.1.15,2013-10-21 12:25:00,
2013-10-21 07:30:00,50.9,49.8,30.00,WNW,294,0.0,0.0,96,0.00,,,0.00,12,Wunderground v.1.15,2013-10-21 12:30:00,
2013-10-21 07:35:00,50.9,49.8,30.01,WNW,294,0.0,0.0,96,0.00,,,0.00,16,Wunderground v.1.15,2013-10-21 12:35:00,
2013-10-21 07:40:00,50.9,49.5,30.01,WNW,294,0.0,0.0,95,0.00,,,0.00,19,Wunderground v.1.15,2013-10-21 12:40:00,
2013-10-21 07:45:00,51.0,49.9,30.01,WNW,294,0.0,0.0,96,0.00,,,0.00,21,Wunderground v.1.15,2013-10-21 12:45:00,
2013-10-21 07:50:00,51.1,49.7,30.01,WNW,294,0.0,0.0,95,0.00,,,0.00,33,Wunderground v.1.15,2013-10-21 12:50:00,
2013-10-21 07:56:00,51.4,50.3,30.01,WNW,294,0.0,0.0,96,0.00,,,0.00,21,Wunderground v.1.15,2013-10-21 12:56:00,
2013-10-21 08:01:00,51.6,50.2,30.01,WNW,294,0.0,0.0,95,0.00,,,0.00,28,Wunderground v.1.15,2013-10-21 13:01:00,
2013-10-21 08:06:00,51.9,50.5,30.01,WNW,294,0.0,0.0,95,0.00,,,0.00,53,Wunderground v.1.15,2013-10-21 13:06:00,
2013-10-21 08:11:00,52.1,50.7,30.01,WNW,294,0.0,0.0,95,0.00,,,0.00,120,Wunderground v.1.15,2013-10-21 13:11:00,
2013-10-21 08:17:00,52.6,51.2,30.02,WNW,294,0.0,0.0,95,0.00,,,0.00,54,Wunderground v.1.15,2013-10-21 13:17:00,
2013-10-21 08:22:00,53.1,51.4,30.02,WNW,294,0.0,0.0,94,0.00,,,0.00,88,Wunderground v.1.15,2013-10-21 13:22:00,
2013-10-21 08:28:00,53.7,51.7,30.03,WNW,294,0.0,0.0,93,0.00,,,0.00,158,Wunderground v.1.15,2013-10-21 13:28:00,
2013-10-21 08:33:00,54.5,52.5,30.03,WNW,294,0.0,0.0,93,0.00,,,0.00,155,Wunderground v.1.15,2013-10-21 13:33:00,
2013-10-21 08:38:00,55.2,52.6,30.03,WNW,294,0.0,0.0,91,0.00,,,0.00,197,Wunderground v.1.15,2013-10-21 13:38:00,
2013-10-21 08:43:00,55.9,52.7,30.03,WNW,294,0.0,0.0,89,0.00,,,0.00,195,Wunderground v.1.15,2013-10-21 13:43:00,
2013-10-21 08:48:00,56.6,53.1,30.03,WNW,294,0.0,1.0,88,0.00,,,0.00,227,Wunderground v.1.15,2013-10-21 13:48:00,
2013-10-21 08:54:00,57.3,53.5,30.04,WNW,294,0.0,0.0,87,0.00,,,0.00,165,Wunderground v.1.15,2013-10-21 13:54:00,
2013-10-21 08:59:00,57.8,54.0,30.03,WNW,294,0.0,0.0,87,0.00,,,0.00,213,Wunderground v.1.15,2013-10-21 13:59:00,
2013-10-21 09:04:00,58.4,54.5,30.03,WNW,297,0.0,0.0,87,0.00,,,0.00,264,Wunderground v.1.15,2013-10-21 14:04:00,
2013-10-21 09:09:00,59.0,54.8,30.04,WNW,297,0.0,0.0,86,0.00,,,0.00,294,Wunderground v.1.15,2013-10-21 14:09:00,
2013-10-21 09:14:00,59.7,54.9,30.04,WNW,297,0.0,0.0,84,0.00,,,0.00,339,Wunderground v.1.15,2013-10-21 14:14:00,
2013-10-21 09:20:00,60.4,55.2,30.03,WNW,298,0.0,0.0,83,0.00,,,0.00,265,Wunderground v.1.15,2013-10-21 14:20:00,
2013-10-21 09:25:00,60.6,55.7,30.03,WNW,294,0.0,0.0,84,0.00,,,0.00,181,Wunderground v.1.15,2013-10-21 14:25:00,
2013-10-21 09:30:00,60.6,55.7,30.03,WNW,300,0.0,0.0,84,0.00,,,0.00,139,Wunderground v.1.15,2013-10-21 14:30:00,
2013-10-21 09:35:00,60.7,55.8,30.03,WNW,300,0.0,0.0,84,0.00,,,0.00,190,Wunderground v.1.15,2013-10-21 14:35:00,
2013-10-21 09:40:00,60.8,55.9,30.02,WNW,303,0.0,0.0,84,0.00,,,0.00,218,Wunderground v.1.15,2013-10-21 14:40:00,
2013-10-21 09:45:00,60.8,56.3,30.03,WNW,303,0.0,0.0,85,0.00,,,0.00,329,Wunderground v.1.15,2013-10-21 14:45:00,
2013-10-21 09:50:00,61.3,57.1,30.03,WNW,303,0.0,0.0,86,0.00,,,0.00,547,Wunderground v.1.15,2013-10-21 14:50:00,
2013-10-21 09:56:00,62.3,57.1,30.04,WNW,302,0.0,1.0,83,0.00,,,0.00,287,Wunderground v.1.15,2013-10-21 14:56:00,
2013-10-21 10:01:00,62.7,57.1,30.04,WNW,302,1.0,1.0,82,0.00,,,0.00,338,Wunderground v.1.15,2013-10-21 15:01:00,
2013-10-21 10:06:00,63.2,57.6,30.04,WNW,302,0.0,1.0,82,0.00,,,0.00,457,Wunderground v.1.15,2013-10-21 15:06:00,
2013-10-21 10:12:00,63.7,57.4,30.03,WNW,302,0.0,0.0,80,0.00,,,0.00,462,Wunderground v.1.15,2013-10-21 15:12:00,
2013-10-21 10:17:00,64.1,57.8,30.04,WNW,301,0.0,0.0,80,0.00,,,0.00,315,Wunderground v.1.15,2013-10-21 15:17:00,
2013-10-21 10:22:00,64.4,58.1,30.04,WNW,301,0.0,0.0,80,0.00,,,0.00,427,Wunderground v.1.15,2013-10-21 15:22:00,
2013-10-21 10:28:00,64.8,57.4,30.04,WNW,301,0.0,0.0,77,0.00,,,0.00,561,Wunderground v.1.15,2013-10-21 15:28:00,
2013-10-21 10:33:00,65.1,57.7,30.04,ENE,70,0.0,2.0,77,0.00,,,0.00,506,Wunderground v.1.15,2013-10-21 15:33:00,
2013-10-21 10:38:00,65.3,57.5,30.04,SE,127,1.0,3.0,76,0.00,,,0.00,506,Wunderground v.1.15,2013-10-21 15:38:00,
2013-10-21 10:43:00,65.7,58.3,30.04,SE,128,0.0,0.0,77,0.00,,,0.00,445,Wunderground v.1.15,2013-10-21 15:43:00,
2013-10-21 10:49:00,66.1,58.7,30.04,SE,133,0.0,0.0,77,0.00,,,0.00,378,Wunderground v.1.15,2013-10-21 15:49:00,
2013-10-21 10:54:00,66.6,59.2,30.04,SE,133,0.0,0.0,77,0.00,,,0.00,571,Wunderground v.1.15,2013-10-21 15:54:00,
2013-10-21 10:59:00,67.2,59.7,30.04,SSE,167,0.0,5.0,77,0.00,,,0.00,480,Wunderground v.1.15,2013-10-21 15:59:00,
2013-10-21 11:04:00,67.3,59.1,30.04,SSE,154,0.0,0.0,75,0.00,,,0.00,534,Wunderground v.1.15,2013-10-21 16:04:00,
2013-10-21 11:09:00,67.4,59.9,30.04,SSE,154,0.0,0.0,77,0.00,,,0.00,536,Wunderground v.1.15,2013-10-21 16:09:00,
2013-10-21 11:15:00,67.9,60.1,30.04,SSE,154,0.0,0.0,76,0.00,,,0.00,443,Wunderground v.1.15,2013-10-21 16:15:00,
2013-10-21 11:20:00,68.2,60.0,30.04,SSE,154,0.0,0.0,75,0.00,,,0.00,355,Wunderground v.1.15,2013-10-21 16:20:00,
2013-10-21 11:25:00,68.4,60.2,30.04,SSE,154,0.0,0.0,75,0.00,,,0.00,381,Wunderground v.1.15,2013-10-21 16:25:00,
2013-10-21 11:30:00,68.6,60.0,30.04,SSE,154,0.0,0.0,74,0.00,,,0.00,309,Wunderground v.1.15,2013-10-21 16:30:00,
2013-10-21 11:35:00,68.7,60.1,30.04,SSE,154,0.0,0.0,74,0.00,,,0.00,264,Wunderground v.1.15,2013-10-21 16:35:00,
2013-10-21 11:40:00,68.8,60.6,30.04,SSE,154,0.0,0.0,75,0.00,,,0.00,251,Wunderground v.1.15,2013-10-21 16:40:00,
2013-10-21 11:46:00,68.8,60.6,30.03,SSE,154,0.0,0.0,75,0.00,,,0.00,243,Wunderground v.1.15,2013-10-21 16:46:00,
2013-10-21 11:51:00,68.7,61.2,30.03,SSE,154,0.0,0.0,77,0.00,,,0.00,271,Wunderground v.1.15,2013-10-21 16:51:00,
2013-10-21 11:56:00,68.8,60.6,30.03,SSE,154,0.0,0.0,75,0.00,,,0.00,304,Wunderground v.1.15,2013-10-21 16:56:00,
2013-10-21 12:02:00,68.9,61.0,30.03,SSE,154,0.0,0.0,76,0.00,,,0.00,387,Wunderground v.1.15,2013-10-21 17:02:00,
2013-10-21 12:07:00,69.0,61.1,30.03,SSE,154,0.0,0.0,76,0.00,,,0.00,346,Wunderground v.1.15,2013-10-21 17:07:00,
2013-10-21 12:12:00,69.2,60.6,30.03,SSE,154,0.0,1.0,74,0.00,,,0.00,387,Wunderground v.1.15,2013-10-21 17:12:00,
2013-10-21 12:17:00,69.1,60.5,30.04,SSE,154,0.0,1.0,74,0.00,,,0.00,408,Wunderground v.1.15,2013-10-21 17:17:00,
2013-10-21 12:23:00,69.1,60.8,30.04,SSE,154,0.0,0.0,75,0.00,,,0.00,355,Wunderground v.1.15,2013-10-21 17:23:00,
2013-10-21 12:28:00,69.0,60.4,30.04,SSE,154,0.0,0.0,74,0.00,,,0.00,383,Wunderground v.1.15,2013-10-21 17:28:00,
2013-10-21 12:34:00,69.2,61.3,30.03,SSE,154,0.0,0.0,76,0.00,,,0.00,299,Wunderground v.1.15,2013-10-21 17:34:00,
2013-10-21 12:39:00,69.4,61.1,30.03,SSE,154,0.0,0.0,75,0.00,,,0.00,448,Wunderground v.1.15,2013-10-21 17:39:00,
2013-10-21 12:45:00,69.4,61.1,30.03,SSE,153,0.0,1.0,75,0.00,,,0.00,399,Wunderground v.1.15,2013-10-21 17:45:00,
2013-10-21 12:50:00,69.5,60.8,30.03,SSE,154,0.0,0.0,74,0.00,,,0.00,334,Wunderground v.1.15,2013-10-21 17:50:00,
2013-10-21 12:55:00,69.5,61.6,30.02,SSE,154,0.0,0.0,76,0.00,,,0.00,359,Wunderground v.1.15,2013-10-21 17:55:00,
2013-10-21 13:00:00,69.5,61.2,30.02,SSE,155,0.0,0.0,75,0.00,,,0.00,464,Wunderground v.1.15,2013-10-21 18:00:00,
2013-10-21 13:06:00,69.7,61.4,30.01,SSE,155,0.0,0.0,75,0.00,,,0.00,483,Wunderground v.1.15,2013-10-21 18:06:00,
2013-10-21 13:11:00,69.9,61.6,30.01,SSE,158,0.0,4.0,75,0.00,,,0.00,445,Wunderground v.1.15,2013-10-21 18:11:00,
2013-10-21 13:16:00,69.8,61.1,30.01,SSE,165,1.0,4.0,74,0.00,,,0.00,529,Wunderground v.1.15,2013-10-21 18:16:00,
2013-10-21 13:21:00,70.0,60.9,30.01,SSE,165,1.0,1.0,73,0.00,,,0.00,599,Wunderground v.1.15,2013-10-21 18:21:00,
2013-10-21 13:26:00,70.2,61.1,30.01,SSE,168,0.0,1.0,73,0.00,,,0.00,612,Wunderground v.1.15,2013-10-21 18:26:00,
2013-10-21 13:31:00,70.4,61.3,30.01,SSW,199,0.0,0.0,73,0.00,,,0.00,462,Wunderground v.1.15,2013-10-21 18:31:00,
2013-10-21 13:36:00,70.5,61.4,30.01,SSW,193,0.0,0.0,73,0.00,,,0.00,427,Wunderground v.1.15,2013-10-21 18:36:00,
2013-10-21 13:41:00,70.6,61.1,30.01,SSW,193,0.0,0.0,72,0.00,,,0.00,441,Wunderground v.1.15,2013-10-21 18:41:00,
2013-10-21 13:46:00,70.8,60.9,30.01,SSW,193,0.0,4.0,71,0.00,,,0.00,345,Wunderground v.1.15,2013-10-21 18:46:00,
2013-10-21 13:51:00,70.6,61.1,30.01,SSW,195,0.0,0.0,72,0.00,,,0.00,288,Wunderground v.1.15,2013-10-21 18:51:00,
2013-10-21 13:56:00,70.6,61.1,30.00,SSW,194,0.0,0.0,72,0.00,,,0.00,271,Wunderground v.1.15,2013-10-21 18:56:00,
2013-10-21 14:01:00,70.4,61.7,30.00,SSW,194,0.0,0.0,74,0.00,,,0.00,260,Wunderground v.1.15,2013-10-21 19:01:00,
2013-10-21 14:06:00,70.4,61.7,30.00,SSW,194,0.0,0.0,74,0.00,,,0.00,255,Wunderground v.1.15,2013-10-21 19:06:00,
2013-10-21 14:11:00,70.4,61.7,30.00,SSW,194,0.0,3.0,74,0.00,,,0.00,260,Wunderground v.1.15,2013-10-21 19:11:00,
2013-10-21 14:16:00,70.4,62.5,30.00,SSW,194,0.0,3.0,76,0.00,,,0.00,271,Wunderground v.1.15,2013-10-21 19:16:00,
2013-10-21 14:22:00,70.4,61.7,29.99,SSW,194,0.0,0.0,74,0.00,,,0.00,264,Wunderground v.1.15,2013-10-21 19:22:00,
2013-10-21 14:27:00,70.4,62.5,29.99,SSW,194,0.0,0.0,76,0.00,,,0.00,272,Wunderground v.1.15,2013-10-21 19:27:00,
2013-10-21 14:32:00,70.4,61.7,29.99,SSW,194,0.0,0.0,74,0.00,,,0.00,295,Wunderground v.1.15,2013-10-21 19:32:00,
2013-10-21 14:38:00,70.6,61.1,29.99,SSW,194,0.0,0.0,72,0.00,,,0.00,302,Wunderground v.1.15,2013-10-21 19:38:00,
2013-10-21 14:43:00,70.7,62.0,29.98,SSW,194,0.0,0.0,74,0.00,,,0.00,313,Wunderground v.1.15,2013-10-21 19:43:00,
2013-10-21 14:48:00,70.8,61.7,29.98,SSW,194,0.0,1.0,73,0.00,,,0.00,281,Wunderground v.1.15,2013-10-21 19:48:00,
2013-10-21 14:53:00,70.7,62.0,29.98,SSW,194,0.0,0.0,74,0.00,,,0.00,197,Wunderground v.1.15,2013-10-21 19:53:00,
2013-10-21 14:58:00,70.7,62.0,29.97,SSW,194,0.0,0.0,74,0.00,,,0.00,149,Wunderground v.1.15,2013-10-21 19:58:00,
2013-10-21 15:03:00,70.4,60.9,29.97,SSW,194,0.0,0.0,72,0.00,,,0.00,135,Wunderground v.1.15,2013-10-21 20:03:00,
2013-10-21 15:08:00,70.3,62.4,29.97,SSW,194,0.0,0.0,76,0.00,,,0.00,160,Wunderground v.1.15,2013-10-21 20:08:00,
2013-10-21 15:13:00,70.1,62.2,29.97,SSW,194,0.0,0.0,76,0.00,,,0.00,155,Wunderground v.1.15,2013-10-21 20:13:00,
2013-10-21 15:18:00,70.1,61.8,29.97,SSW,194,0.0,0.0,75,0.00,,,0.00,146,Wunderground v.1.15,2013-10-21 20:18:00,
2013-10-21 15:24:00,70.0,62.1,29.97,SSW,194,0.0,0.0,76,0.00,,,0.00,127,Wunderground v.1.15,2013-10-21 20:24:00,
2013-10-21 15:29:00,69.9,61.6,29.97,SSW,194,0.0,0.0,75,0.00,,,0.00,105,Wunderground v.1.15,2013-10-21 20:29:00,
2013-10-21 15:34:00,69.9,62.0,29.97,SSW,194,0.0,0.0,76,0.00,,,0.00,116,Wunderground v.1.15,2013-10-21 20:34:00,
2013-10-21 15:39:00,69.8,61.9,29.97,SSW,194,0.0,0.0,76,0.00,,,0.00,125,Wunderground v.1.15,2013-10-21 20:39:00,
2013-10-21 15:44:00,69.8,62.3,29.97,SSW,194,0.0,0.0,77,0.00,,,0.00,128,Wunderground v.1.15,2013-10-21 20:44:00,
2013-10-21 15:49:00,69.8,63.0,29.97,SSW,194,0.0,0.0,79,0.00,,,0.00,123,Wunderground v.1.15,2013-10-21 20:49:00,
2013-10-21 15:54:00,69.7,62.5,29.97,SSW,194,0.0,0.0,78,0.00,,,0.00,95,Wunderground v.1.15,2013-10-21 20:54:00,
2013-10-21 15:59:00,69.5,63.4,29.97,SSW,194,0.0,0.0,81,0.00,,,0.00,118,Wunderground v.1.15,2013-10-21 20:59:00,
2013-10-21 16:04:00,69.3,63.2,29.97,SSW,194,0.0,0.0,81,0.00,,,0.00,137,Wunderground v.1.15,2013-10-21 21:04:00,
2013-10-21 16:09:00,69.2,62.8,29.97,SSW,194,0.0,0.0,80,0.00,,,0.00,132,Wunderground v.1.15,2013-10-21 21:09:00,
2013-10-21 16:14:00,69.0,62.9,29.97,SSW,194,0.0,0.0,81,0.00,,,0.00,139,Wunderground v.1.15,2013-10-21 21:14:00,
2013-10-21 16:20:00,69.0,63.3,29.97,SSW,194,0.0,0.0,82,0.00,,,0.00,137,Wunderground v.1.15,2013-10-21 21:20:00,
2013-10-21 16:25:00,68.9,62.8,29.97,SSW,194,0.0,0.0,81,0.00,,,0.00,123,Wunderground v.1.15,2013-10-21 21:25:00,
2013-10-21 16:30:00,68.8,63.1,29.97,South,189,0.0,0.0,82,0.00,,,0.00,91,Wunderground v.1.15,2013-10-21 21:30:00,
2013-10-21 16:35:00,68.7,62.3,29.97,SSW,198,0.0,5.0,80,0.00,,,0.00,76,Wunderground v.1.15,2013-10-21 21:35:00,
2013-10-21 16:40:00,68.6,62.2,29.97,SSE,151,0.0,0.0,80,0.00,,,0.00,74,Wunderground v.1.15,2013-10-21 21:40:00,
2013-10-21 16:45:00,68.5,62.4,29.96,SSE,151,0.0,0.0,81,0.00,,,0.00,83,Wunderground v.1.15,2013-10-21 21:45:00,
2013-10-21 16:51:00,68.4,62.7,29.96,SSE,151,0.0,0.0,82,0.00,,,0.00,84,Wunderground v.1.15,2013-10-21 21:51:00,
2013-10-21 16:56:00,68.2,62.5,29.96,South,170,0.0,3.0,82,0.00,,,0.00,67,Wunderground v.1.15,2013-10-21 21:56:00,
2013-10-21 17:01:00,68.0,62.6,29.95,South,171,0.0,0.0,83,0.00,,,0.00,53,Wunderground v.1.15,2013-10-21 22:01:00,
2013-10-21 17:06:00,67.7,62.7,29.95,SSE,151,0.0,0.0,84,0.00,,,0.00,69,Wunderground v.1.15,2013-10-21 22:06:00,
2013-10-21 17:11:00,67.6,62.9,29.95,SSE,151,0.0,0.0,85,0.00,,,0.00,67,Wunderground v.1.15,2013-10-21 22:11:00,
2013-10-21 17:16:00,67.6,62.6,29.96,SSE,151,0.0,0.0,84,0.00,,,0.00,46,Wunderground v.1.15,2013-10-21 22:16:00,
2013-10-21 17:21:00,67.5,62.5,29.96,SSE,151,0.0,0.0,84,0.00,,,0.00,44,Wunderground v.1.15,2013-10-21 22:21:00,
2013-10-21 17:26:00,67.4,62.7,29.96,SSE,151,0.0,0.0,85,0.00,,,0.00,47,Wunderground v.1.15,2013-10-21 22:26:00,
2013-10-21 17:31:00,67.3,63.0,29.96,SSE,151,0.0,0.0,86,0.00,,,0.00,28,Wunderground v.1.15,2013-10-21 22:31:00,
2013-10-21 17:36:00,67.2,62.9,29.96,SSE,151,0.0,0.0,86,0.00,,,0.00,32,Wunderground v.1.15,2013-10-21 22:36:00,
2013-10-21 17:41:00,67.0,62.7,29.96,SSE,151,0.0,0.0,86,0.00,,,0.00,30,Wunderground v.1.15,2013-10-21 22:41:00,
2013-10-21 17:46:00,66.9,62.6,29.97,SSE,151,0.0,0.0,86,0.00,,,0.00,26,Wunderground v.1.15,2013-10-21 22:46:00,
2013-10-21 17:52:00,66.8,62.8,29.96,SSE,151,0.0,0.0,87,0.00,,,0.00,19,Wunderground v.1.15,2013-10-21 22:52:00,
2013-10-21 17:57:00,66.7,63.0,29.95,SSE,151,0.0,0.0,88,0.00,,,0.00,19,Wunderground v.1.15,2013-10-21 22:57:00,
2013-10-21 18:02:00,66.4,62.4,29.95,SSE,151,0.0,0.0,87,0.00,,,0.00,14,Wunderground v.1.15,2013-10-21 23:02:00,
2013-10-21 18:07:00,66.3,62.3,29.96,SSE,151,0.0,0.0,87,0.00,,,0.00,11,Wunderground v.1.15,2013-10-21 23:07:00,
2013-10-21 18:12:00,66.1,62.4,29.95,SSE,151,0.0,0.0,88,0.00,,,0.00,0,Wunderground v.1.15,2013-10-21 23:12:00,
2013-10-21 18:17:00,65.9,62.2,29.95,SSE,151,0.0,0.0,88,0.00,,,0.00,0,Wunderground v.1.15,2013-10-21 23:17:00,
2013-10-21 18:22:00,65.7,62.4,29.95,SSE,151,0.0,0.0,89,0.00,,,0.00,0,Wunderground v.1.15,2013-10-21 23:22:00,
2013-10-21 18:27:00,65.4,62.1,29.95,SSE,150,0.0,1.0,89,0.00,,,0.00,0,Wunderground v.1.15,2013-10-21 23:27:00,
2013-10-21 18:33:00,65.3,62.0,29.95,SSE,150,0.0,0.0,89,0.00,,,0.00,0,Wunderground v.1.15,2013-10-21 23:33:00,
2013-10-21 18:38:00,65.3,62.0,29.94,SSE,150,0.0,2.0,89,0.00,,,0.00,0,Wunderground v.1.15,2013-10-21 23:38:00,
2013-10-21 18:43:00,65.3,62.0,29.94,SSE,150,0.0,0.0,89,0.00,,,0.00,0,Wunderground v.1.15,2013-10-21 23:43:00,
2013-10-21 18:48:00,65.1,62.1,29.93,SSE,150,0.0,0.0,90,0.00,,,0.00,0,Wunderground v.1.15,2013-10-21 23:48:00,
2013-10-21 18:53:00,65.0,62.0,29.94,SSE,150,0.0,0.0,90,0.00,,,0.00,0,Wunderground v.1.15,2013-10-21 23:53:00,
2013-10-21 18:59:00,64.9,62.2,29.94,SSE,150,0.0,0.0,91,0.00,,,0.00,0,Wunderground v.1.15,2013-10-21 23:59:00,
2013-10-21 19:04:00,64.8,62.1,29.93,SSE,150,0.0,0.0,91,0.00,,,0.00,0,Wunderground v.1.15,2013-10-22 00:04:00,
2013-10-21 19:09:00,64.7,62.0,29.93,SSE,150,0.0,0.0,91,0.00,,,0.00,0,Wunderground v.1.15,2013-10-22 00:09:00,
2013-10-21 19:15:00,64.5,61.8,29.93,SSE,150,0.0,0.0,91,0.00,,,0.00,0,Wunderground v.1.15,2013-10-22 00:15:00,
2013-10-21 19:20:00,64.4,62.0,29.93,SSE,150,0.0,2.0,92,0.00,,,0.00,0,Wunderground v.1.15,2013-10-22 00:20:00,
2013-10-21 19:25:00,64.3,61.9,29.94,SSE,149,0.0,2.0,92,0.00,,,0.00,0,Wunderground v.1.15,2013-10-22 00:25:00,
2013-10-21 19:30:00,64.2,61.5,29.95,SSE,149,0.0,0.0,91,0.00,,,0.00,0,Wunderground v.1.15,2013-10-22 00:30:00,
2013-10-21 19:35:00,64.3,61.9,29.95,SSE,149,0.0,0.0,92,0.00,,,0.00,0,Wunderground v.1.15,2013-10-22 00:35:00,
2013-10-21 19:40:00,64.2,61.8,29.95,SSE,149,0.0,0.0,92,0.00,,,0.00,0,Wunderground v.1.15,2013-10-22 00:40:00,
2013-10-21 19:45:00,64.1,61.4,29.95,SSE,149,0.0,0.0,91,0.00,,,0.00,0,Wunderground v.1.15,2013-10-22 00:45:00,
2013-10-21 19:50:00,64.0,61.6,29.96,SSE,149,0.0,0.0,92,0.00,,,0.00,0,Wunderground v.1.15,2013-10-22 00:50:00,
2013-10-21 19:55:00,63.9,61.5,29.95,SSE,149,0.0,0.0,92,0.00,,,0.00,0,Wunderground v.1.15,2013-10-22 00:55:00,
2013-10-21 20:00:00,63.7,61.3,29.95,SSE,149,0.0,0.0,92,0.00,,,0.00,0,Wunderground v.1.15,2013-10-22 01:00:00,
2013-10-21 20:05:00,63.6,61.2,29.95,SSE,149,0.0,0.0,92,0.00,,,0.00,0,Wunderground v.1.15,2013-10-22 01:05:00,
2013-10-21 20:10:00,63.4,61.3,29.95,SSE,149,0.0,0.0,93,0.00,,,0.00,0,Wunderground v.1.15,2013-10-22 01:10:00,
2013-10-21 20:15:00,63.3,61.2,29.96,SSE,149,0.0,0.0,93,0.00,,,0.00,0,Wunderground v.1.15,2013-10-22 01:15:00,
2013-10-21 20:21:00,63.1,61.0,29.96,SSE,149,0.0,0.0,93,0.00,,,0.00,0,Wunderground v.1.15,2013-10-22 01:21:00,
2013-10-21 20:26:00,62.8,60.7,29.96,SSE,149,0.0,0.0,93,0.00,,,0.00,0,Wunderground v.1.15,2013-10-22 01:26:00,
2013-10-21 20:31:00,62.6,60.8,29.96,SSE,149,0.0,0.0,94,0.00,,,0.00,0,Wunderground v.1.15,2013-10-22 01:31:00,
2013-10-21 20:36:00,62.5,60.4,29.96,SSE,149,0.0,0.0,93,0.00,,,0.00,0,Wunderground v.1.15,2013-10-22 01:36:00,
2013-10-21 20:41:00,62.4,60.7,29.97,SSE,149,0.0,0.0,94,0.00,,,0.00,0,Wunderground v.1.15,2013-10-22 01:41:00,
2013-10-21 20:46:00,62.3,60.6,29.97,SSE,149,0.0,0.0,94,0.00,,,0.00,0,Wunderground v.1.15,2013-10-22 01:46:00,
2013-10-21 20:52:00,62.0,60.3,29.97,SSE,149,0.0,0.0,94,0.00,,,0.00,0,Wunderground v.1.15,2013-10-22 01:52:00,
2013-10-21 20:57:00,61.8,60.1,29.98,SSE,149,0.0,0.0,94,0.00,,,0.00,0,Wunderground v.1.15,2013-10-22 01:57:00,
2013-10-21 20:58:00,61.8,60.1,29.98,SSE,149,0.0,0.0,94,0.00,,,0.00,0,Wunderground v.1.15,2013-10-22 01:58:00,
2013-10-21 21:03:00,61.8,60.4,29.97,SSE,149,0.0,0.0,95,0.00,,,0.00,0,Wunderground v.1.15,2013-10-22 02:03:00,
2013-10-21 21:08:00,61.7,60.3,29.98,SSE,149,0.0,0.0,95,0.00,,,0.00,0,Wunderground v.1.15,2013-10-22 02:08:00,
2013-10-21 21:13:00,61.6,60.2,29.98,SSE,149,0.0,0.0,95,0.00,,,0.00,0,Wunderground v.1.15,2013-10-22 02:13:00,
2013-10-21 21:18:00,61.5,60.1,29.97,SSE,149,0.0,0.0,95,0.00,,,0.00,0,Wunderground v.1.15,2013-10-22 02:18:00,
2013-10-21 21:23:00,61.4,60.0,29.97,SSE,149,0.0,0.0,95,0.00,,,0.00,0,Wunderground v.1.15,2013-10-22 02:23:00,
2013-10-21 21:28:00,61.3,59.9,29.97,SSE,149,0.0,0.0,95,0.00,,,0.00,0,Wunderground v.1.15,2013-10-22 02:28:00,
2013-10-21 21:33:00,61.3,60.2,29.97,SSE,149,0.0,0.0,96,0.00,,,0.00,0,Wunderground v.1.15,2013-10-22 02:33:00,
2013-10-21 21:38:00,61.3,60.2,29.97,SSE,149,0.0,0.0,96,0.00,,,0.00,0,Wunderground v.1.15,2013-10-22 02:38:00,
2013-10-21 21:43:00,61.3,60.2,29.97,SSE,149,0.0,0.0,96,0.00,,,0.00,0,Wunderground v.1.15,2013-10-22 02:43:00,
2013-10-21 21:48:00,61.2,60.1,29.96,SSE,149,0.0,0.0,96,0.00,,,0.00,0,Wunderground v.1.15,2013-10-22 02:48:00,
2013-10-21 21:53:00,61.2,60.1,29.96,SSE,149,0.0,0.0,96,0.00,,,0.00,0,Wunderground v.1.15,2013-10-22 02:53:00,
2013-10-21 21:58:00,61.2,60.1,29.97,SSE,149,0.0,0.0,96,0.00,,,0.00,0,Wunderground v.1.15,2013-10-22 02:58:00,
2013-10-21 22:03:00,61.2,60.1,29.97,SSE,149,0.0,0.0,96,0.00,,,0.00,0,Wunderground v.1.15,2013-10-22 03:03:00,
2013-10-21 22:08:00,61.3,60.2,29.97,SSE,149,0.0,0.0,96,0.00,,,0.00,0,Wunderground v.1.15,2013-10-22 03:08:00,
2013-10-21 22:14:00,61.3,60.2,29.98,SSE,149,0.0,0.0,96,0.00,,,0.00,0,Wunderground v.1.15,2013-10-22 03:14:00,
2013-10-21 22:19:00,61.4,60.2,29.98,SSE,149,0.0,0.0,96,0.00,,,0.00,0,Wunderground v.1.15,2013-10-22 03:19:00,
2013-10-21 22:24:00,61.4,60.2,29.99,SSE,149,0.0,0.0,96,0.00,,,0.00,0,Wunderground v.1.15,2013-10-22 03:24:00,
2013-10-21 22:29:00,61.4,60.2,29.99,SSE,149,0.0,0.0,96,0.00,,,0.00,0,Wunderground v.1.15,2013-10-22 03:29:00,
2013-10-21 22:35:00,61.3,60.2,29.98,SSE,149,0.0,0.0,96,0.00,,,0.00,0,Wunderground v.1.15,2013-10-22 03:35:00,
2013-10-21 22:41:00,61.3,60.2,29.98,SSE,149,0.0,0.0,96,0.00,,,0.00,0,Wunderground v.1.15,2013-10-22 03:41:00,
2013-10-21 22:46:00,61.3,60.2,29.98,SSE,149,0.0,0.0,96,0.00,,,0.00,0,Wunderground v.1.15,2013-10-22 03:46:00,
2013-10-21 22:51:00,61.3,60.2,29.98,SSE,149,0.0,0.0,96,0.00,,,0.00,0,Wunderground v.1.15,2013-10-22 03:51:00,
2013-10-21 22:56:00,61.2,60.1,29.98,SSE,149,0.0,0.0,96,0.00,,,0.00,0,Wunderground v.1.15,2013-10-22 03:56:00,
2013-10-21 23:01:00,61.2,60.1,29.98,SSE,149,0.0,0.0,96,0.00,,,0.00,0,Wunderground v.1.15,2013-10-22 04:01:00,
2013-10-21 23:02:00,61.2,60.1,29.98,SSE,149,0.0,0.0,96,0.00,,,0.00,0,Wunderground v.1.15,2013-10-22 04:02:00,
2013-10-21 23:03:00,61.2,60.1,29.98,SSE,149,0.0,0.0,96,0.00,,,0.00,0,Wunderground v.1.15,2013-10-22 04:03:00,
2013-10-21 23:08:00,61.2,60.1,29.98,SSE,149,0.0,0.0,96,0.00,,,0.00,0,Wunderground v.1.15,2013-10-22 04:08:00,
2013-10-21 23:12:00,61.2,60.1,29.98,SSE,149,0.0,0.0,96,0.00,,,0.00,0,Wunderground v.1.15,2013-10-22 04:12:00,
2013-10-21 23:13:00,61.2,60.1,29.98,SSE,149,0.0,0.0,96,0.00,,,0.00,0,Wunderground v.1.15,2013-10-22 04:13:00,
2013-10-21 23:17:00,61.2,60.1,29.97,SSE,149,0.0,0.0,96,0.00,,,0.00,0,Wunderground v.1.15,2013-10-22 04:17:00,
2013-10-21 23:22:00,61.2,60.1,29.97,SSE,149,0.0,0.0,96,0.00,,,0.00,0,Wunderground v.1.15,2013-10-22 04:22:00,
2013-10-21 23:27:00,61.2,60.1,29.97,SSE,149,0.0,0.0,96,0.00,,,0.00,0,Wunderground v.1.15,2013-10-22 04:27:00,
2013-10-21 23:33:00,61.2,60.1,29.97,SSE,149,0.0,0.0,96,0.00,,,0.00,0,Wunderground v.1.15,2013-10-22 04:33:00,
2013-10-21 23:38:00,61.2,60.1,29.97,SSE,149,0.0,0.0,96,0.00,,,0.00,0,Wunderground v.1.15,2013-10-22 04:38:00,
2013-10-21 23:43:00,61.2,60.1,29.97,SSE,149,0.0,0.0,96,0.00,,,0.00,0,Wunderground v.1.15,2013-10-22 04:43:00,
2013-10-21 23:48:00,61.2,60.1,29.97,SSE,149,0.0,0.0,96,0.00,,,0.00,0,Wunderground v.1.15,2013-10-22 04:48:00,
2013-10-21 23:53:00,61.2,60.1,29.97,SSE,149,0.0,0.0,96,0.00,,,0.00,0,Wunderground v.1.15,2013-10-22 04:53:00,
2013-10-21 23:58:00,61.1,60.0,29.97,SSE,149,0.0,0.0,96,0.00,,,0.00,0,Wunderground v.1.15,2013-10-22 04:58:00,